Location: La Oliva
(42.2466°N, 2.9955°E)
Time: 11:36:42
(UTC+00:00)

Cosmos 2058 - Pass Details

Date: 22 April 2021
Orbit: 561 x 583 km, 82.5° (Epoch: 10 May)

Event Time Altitude Azimuth Distance (km) Brightness Sun altitude
Rises 18:58:42 0° 360° (N) 2,803 6.7 -4.5°
Reaches altitude 10° 19:01:03 10° 9° (N) 1,896 5.7 -4.9°
Maximum altitude 19:04:55 36° 77° (ENE) 921 3.6 -5.6°
Drops below altitude 10° 19:08:44 10° 144° (SE) 1,869 5.0 -6.2°
Enters shadow 19:10:37 - 152° (SSE) 2,591 5.8 -6.6°
